FENGYUN 1C DEB, 30509

Orbit data source: Space-Track

FENGYUN 1C DEB, 30509 is space debris in SSO originally from a launch on Mon, 10 May 1999 UTC launched from the Taiyaun Space Center, China (TSC). Fengyun 1C debris stems from the Chinese weather satellite Fengyun-1C, which was intentionally destroyed by a Chinese anti-satellite missile in 2007. This event dramatically increased the amount of space debris, with thousands of trackable fragments posing hazards to satellites and human spaceflight. The Fengyun 1C debris cloud has become a focal point in discussions about space sustainability and the need for international regulations to prevent the creation of new debris.

Loading next visibility...
Identifier
30509, 1999-025AHX
Orbit
SSO
Country
Flag of CNCN / PRC
Related business
Manufacturer
Unknown
Mission
Spacecraft
Bus & Motor
Unknown
Mass
Unknown
Launch date (UTC)
1999-05-10 (27 years ago)
Launch vehicle
Unknown
Launch site
Taiyaun Space Center, China (TSC)
Object type
Payload
Rocket body
Debris
Shape & HBR
Unknown shape, 0.1 m
Radar Cross Section
Small (<0.1 m²)

Expand to show TLE details & history
Last TLE update: 17 hours ago

TLE from 17 hours ago
0 FENGYUN 1C DEB
1 30509U 99025AHX 26236.06876431  .00001983  00000-0  11126-2 0  9990
2 30509  98.4562  97.2927 0102067  60.0941 103.1933 14.09012770993029
Epoch: 2026-08-24T01:39Z
TLE epoch observation values (Epoch: 2026-08-24T01:39:01.236Z)
Latitude
15.38132°
Longitude
-77.48659°
Altitude
882.553 km
Speed
7.403 km/s
True Right ascension
18h 38m 29s
True Declination
15° 17' 42"
Sunlit
Object was in full shadow at epoch
Visualization orbit readout
Latitude
Unknown
Longitude
Unknown
Altitude
Unknown
Speed
Unknown
Apparent Right ascension
Unknown
Apparent Declination
Unknown
Sunlit
N/A
Visualization observer readout
Local Sidereal Time
09:58:52
Azimuth
Unknown
Elevation
Unknown
Doppler factor
Unknown
Orbital elements
Apogee altitude
933.79 km
Perigee altitude
786.036 km
Semi-major axis
7,238.05 km
Eccentricity
0.01021
Inclination
98.4562°
RAAN
97.2927°
Arg. of periapsis
60.0941°
True anomaly
104.32865°
Mean anomaly
103.1933°
Eccentric anomaly
103.76131°
Mean motion
3.52461 °/min
Orbital period
102.14 mins
BSTAR
0.0011126
Loading maneuver chart data...
Computing Atmospheric mass density...

Documentation

Showing up to 5 results
|